User: anonymous   Login
Location: Unspecified
(0.0000°N, 0.0000°E)
Time: 09:40:07
(UTC+00:00)
Language:

RAX-2 - Orbit

View from above orbital plane
View from above orbital plane
View from above satellite
View from above satellite

Ground track
Ground track

The orbit data is extracted from the following two-line orbital elements,

1 37853U 11061D   15152.77820262  .00005013  00000-0  31133-3 0  9996
2 37853 101.7133 356.2458 0196340 120.9343 008.3069 14.95929847194808
Epoch (UTC): 01 June 2015 18:40:36
Eccentricity: 0.0196340
inclination: 101.7133°
perigee height: 443 km
apogee height: 716 km
right ascension of ascending node: 356.2458°
argument of perigee: 120.9343°
revolutions per day: 14.95929847
mean anomaly at epoch: 8.3069°
orbit number at epoch: 19480

The dashed part of the orbit path shows where the satellite is in the earth's shadow,  

DLR